Regional Weather Roundup
Issued by NWS

Home | Current Version | Previous Version | Text Only | Print | Product List | Glossary Off
Versions: 1 2 3 4 5 6 7 8 9 10 11 12 13 14 15 16 17 18 19 20 21 22 23 24 25 26 27 28 29 30 31 32 33 34 35 36 37 38 39 40 41 42 43 44 45 46 47 48 49 50

000
ASUS45 KSLC 271210
RWRUT

UTAH REGIONAL WEATHER ROUNDUP
NATIONAL WEATHER SERVICE SALT LAKE CITY UT
500 AM MST THU NOV 27 2014

UTZ001>011-023>025-271300-

NORTHERN UTAH

CITY           SKY/WX    TMP DP  RH WIND       PRES   REMARKS
BRIGHAM CITY   MOCLDY    45  27  48 CALM      30.30F
HILL AFB       MOCLDY    42  25  50 SE9       30.30F
LOGAN          CLEAR     34  27  75 CALM      30.28F
OGDEN          MOCLDY    40  26  57 S10       30.29F WCI  33
PROVO AIRPORT  MOCLDY    32  27  80 E6        30.38S WCI  26
SALT LAKE CITY MOCLDY    45  26  47 SE15      30.29F
VERNAL         MOCLDY    29  21  72 W5        30.40F WCI  24
WENDOVER       CLOUDY    36  27  69 CALM      30.29F
HEBER CITY     MOCLDY    25  23  93 CALM      30.40F
WEST JORDAN    CLEAR     45  30  57 S14       30.32F

$$

UTZ012>022-026-027-271300-

SOUTHERN/CENTRAL UTAH

CITY           SKY/WX    TMP DP  RH WIND       PRES   REMARKS
BLANDING       PTCLDY    32  20  62 N7        30.52S WCI  25
BRYCE CANYON   MOCLDY    21  12  68 W9        30.51F WCI  11
CEDAR CITY     MOCLDY    26  17  68 SW5       30.40F WCI  20
DELTA          CLOUDY    32  26  80 E6        30.37F WCI  26
MILFORD        NOT AVBL
MOAB/CYNLANDS  CLEAR     33  20  58 CALM      30.44R
PRICE          PTCLDY    30  21  69 NE8       30.44S WCI  22
ST GEORGE      PTSUNNY   37  16  41 CALM      30.39S
KANAB          MOCLDY    27  14  59 NE5       30.46S WCI  21

$$

REGIONAL REPORTS     COLORADO/ARIZONA

CITY           SKY/WX    TMP DP  RH WIND       PRES   REMARKS
CRAIG, CO      MOCLDY    25  22  88 SE3       30.41F
GRAND JUNCTION CLEAR     23  20  88 E3        30.46S
RIFLE          CLEAR     23  20  88 CALM      30.50S
MONTROSE       CLEAR     24  20  84 SE8       30.50F WCI  15
CORTEZ         CLEAR     19  16  88 NE3       30.47S
PAGE, AZ       MOCLDY    36  18  48 CALM      30.43R
GRAND CANYON   MOCLDY    14   5  67 NE5       30.46F WCI   6
KINGMAN        PTCLDY    43  16  33 E5        30.29F
FLAGSTAFF      PTCLDY    25  12  58 CALM      30.46F

$$

REGIONAL REPORTS    NEVADA/IDAHO/WYOMING

CITY           SKY/WX    TMP DP  RH WIND       PRES   REMARKS
LAS VEGAS, NV  CLEAR     48  18  30 SW7       30.26F
ELY            MOCLDY    28  14  55 S9        30.42S WCI  19
ELKO           CLOUDY    35  29  78 NE3       30.30F
POCATELLO, ID  CLEAR     50  27  40 S12G17    30.20F
BURLEY         CLOUDY    47  28  47 W6        30.18F
EVANSTON, WY   MOCLDY    34  22  61 SW20      30.33F WCI  23
ROCK SPRINGS   MOCLDY    34  19  54 W9        30.32S WCI  27

$$


USA.gov is the U.S. government's official web portal to all federal, state and local government web resources and services.